• MPC Preparation (Info)

  • MPEC 2019-V115 : 2019 VG4

    The following Minor Planet Electronic Circular may be linked-to from your own Web pages, but must not otherwise be redistributed electronically.

    A form allowing access to any MPEC is at the bottom of this page.


    Read MPEC 2019-V114 Read MPEC 2019-V116


    M.P.E.C. 2019-V115                             Issued 2019 November 7, 18:06 UT
    
         The Minor Planet Electronic Circulars contain information on unusual
             minor planets and routine data on comets.  They are published
        on behalf of Division F of the International Astronomical Union by the
              Minor Planet Center, Smithsonian Astrophysical Observatory,
                              Cambridge, MA 02138, U.S.A.
    
                 Prepared using the Tamkin Foundation Computer Network
    
                                  MPC@CFA.HARVARD.EDU
                URL https://www.minorplanetcenter.net/    ISSN 1523-6714
    
                                    2019 VG4                                 
    
    
    Observations:
         K19V04G* C2019 11 05.27446 02 52 02.09 +15 44 48.1                VEV115G96
         K19V04G  C2019 11 05.27963 02 51 55.95 +15 47 25.2          19.8 GVEV115G96
         K19V04G  C2019 11 05.28479 02 51 49.66 +15 50 04.4                VEV115G96
         K19V04G  C2019 11 05.38992 02 49 46.56 +16 41 37.3          20.2 GVEV115I52
         K19V04G  C2019 11 05.39049 02 49 45.86 +16 41 53.8          19.9 GVEV115I52
         K19V04G  C2019 11 05.39105 02 49 45.25 +16 42 10.5                VEV115I52
         K19V04G  C2019 11 06.16094 02 38 14.73 +21 59 58.8          21.6 GVEV115G96
         K19V04G  C2019 11 06.16134 02 38 14.38 +22 00 07.5          21.1 GVEV115G96
         K19V04G  C2019 11 06.16175 02 38 14.03 +22 00 14.6          22.1 GVEV115G96
         K19V04G  C2019 11 06.16215 02 38 13.64 +22 00 24.5          20.3 GVEV115G96
         K19V04G  C2019 11 07.25188 02 25 13.85 +27 16 34.1          20.4 GVEV115G96
         K19V04G  C2019 11 07.25431 02 25 12.20 +27 17 09.0          21.1 GVEV115G96
         K19V04G  C2019 11 07.25675 02 25 10.48 +27 17 43.2          20.7 GVEV115G96
         K19V04G  C2019 11 07.25918 02 25 08.86 +27 18 18.3          21.1 GVEV115G96
    
    Observer details:
    G96 Mt. Lemmon Survey.  Observers E. J. Christensen, T. A. Pruyne.  Measurers 
       E. J. Christensen, G. A. Farneth, D. C. Fuls, A. R. Gibbs, A. D. Grauer, H. 
       Groeller, R. A. Kowalski, S. M. Larson, G. J. Leonard, T. A. Pruyne, D. 
       Rankin, R. L. Seaman, F. C. Shelly, K. W. Wierzchos.  1.5-m reflector + 10K 
       CCD.
    I52 Steward Observatory, Mt. Lemmon Station.  Observer D. Rankin.  Measurers E. 
       J. Christensen, G. A. Farneth, D. C. Fuls, A. R. Gibbs, A. D. Grauer, H. 
       Groeller, R. A. Kowalski, S. M. Larson, G. J. Leonard, T. A. Pruyne, D. 
       Rankin, R. L. Seaman, F. C. Shelly, K. W. Wierzchos.  1.0-m reflector + CCD.
    
    Orbital elements:
    2019 VG4                                                 Earth MOID = 0.0169 AU
    Epoch 2019 Apr. 27.0 TT = JDT 2458600.5                 Bell
    M 261.12667              (2000.0)            P               Q
    n   0.75982425     Peri.  276.97821     +0.73792230     +0.65305369
    a   1.1893982      Node    42.44991     -0.47539385     +0.68205915
    e   0.3295058      Incl.   14.61193     -0.47903170     +0.32911425
    P   1.30           H   27.8           G   0.15           U   7
    Residuals in seconds of arc
    191105 G96  0.3-  0.2-    191105 I52  0.0   0.7+    191107 G96  0.5-  0.1+
    191105 G96  0.5+  0.2-    191106 G96  0.1-  0.4+    191107 G96  0.1+  0.3+
    191105 G96 (1.2-  2.6+)   191106 G96  0.0   0.5+    191107 G96  0.2-  0.4-
    191105 I52  0.3+  0.1-    191106 G96  0.2+  1.2-    191107 G96  0.7+  0.1+
    191105 I52  0.4-  0.0     191106 G96  0.2-  0.0
    
    Ephemeris:
    2019 VG4                 a,e,i = 1.19, 0.33, 15                  q = 0.7975
    Date    TT    R. A. (2000) Decl.     Delta      r    Elong.  Phase     V
    2019 10 08    12 51 20.4 -49 49 43   0.1840  0.8770    44.2   127.3    29.3
    ...
    2019 10 23    12 05 08.1 -57 06 36   0.07580 0.9483    50.0   126.4    27.5
    ...
    2019 10 31    07 34 25.3 -61 03 12   0.02395 0.9904    83.1    95.5    23.1
    ...
    2019 11 06    02 40 18.8 +21 02 24   0.03171 1.0230   174.7     5.2    20.8
    2019 11 07    02 27 50.0 +26 14 28   0.03798 1.0285   168.9    10.7    21.4
    2019 11 08    02 18 17.9 +29 53 20   0.04456 1.0339   164.6    14.7    21.9
    ...
    2019 11 14    01 49 51.7 +39 08 15   0.08677 1.0669   152.0    25.8    23.8
    ...
    2019 11 22    01 38 57.5 +42 19 11   0.1463  1.1107   144.9    30.7    25.2
    ...
    2019 12 07    01 42 30.4 +43 18 28   0.2659  1.1906   135.9    35.2    26.7
    
    A. U. Tomatic                (C) Copyright 2019 MPC           M.P.E.C. 2019-V115
    


    Read MPEC 2019-V114 Read MPEC 2019-V116


    MPEC number:

    Enter an MPEC number in one of the following forms:

    • 1997-B01 (the full form)
    • J97B01 (the packed version of the full form)
    • B01 (the abbreviated form)